Regional Weather Roundup
Issued by NWS

Home | Current Version | Previous Version | Text Only | Print | Product List | Glossary On
Versions: 1 2 3 4 5 6 7 8 9 10 11 12 13 14 15 16 17 18 19 20 21 22 23 24 25 26 27 28 29 30 31 32 33 34 35 36 37 38 39 40 41 42 43 44 45 46 47 48 49 50
000
ASUS43 KLMK 250802
RWRKY
KENTUCKY REGIONAL WEATHER ROUNDUP
NATIONAL WEATHER SERVICE LOUISVILLE KY
300 AM EST SUN FEB 25 2018

NOTE "FAIR" INDICATES FEW OR NO CLOUDS BELOW 12,000 FEET
WITH NO SIGNIFICANT WEATHER AND/OR OBSTRUCTIONS TO VISIBILITY.

KYZ001>023-026-027-061>063-070>075-250900-
WESTERN AND SOUTH CENTRAL KENTUCKY

CITY           SKY/WX    TMP DP  RH WIND       PRES   REMARKS
PADUCAH        FAIR      52  41  66 W18G31    29.91R
HENDERSON      CLOUDY    52  46  80 NW29      29.84R
OWENSBORO      MOCLDY    60  53  77 W22       29.81R
HOPKINSVILLE   CLOUDY    56  55  96 SW14      29.87R
BOWLING GREEN  CLOUDY    58  54  86 SW15      29.87R
GLASGOW        NOT AVBL
$$

KYZ024-025-028>034-038-045-046-053-250900-
NORTH CENTRAL KENTUCKY

CITY           SKY/WX    TMP DP  RH WIND       PRES   REMARKS
LOUISVILLE/SDF CLOUDY    62  57  83 SW14G23   29.75R
LOUISVILLE/LOU CLOUDY    61  58  90 SW13G22   29.75R
FORT KNOX      CLOUDY    59  59 100 S15       29.79R
$$

KYZ035>037-039>044-047>052-055>060-089>105-250900-
NORTHEAST KENTUCKY

CITY           SKY/WX    TMP DP  RH WIND       PRES   REMARKS
LEXINGTON      LGT RAIN  60  56  86 S17G25    29.79F
COVINGTON      CLOUDY    59  56  89 SW15      29.69F
FRANKFORT      LGT RAIN  60  55  83 S16G25    29.74F
$$

KYZ054-064>069-076>088-106>120-250900-
SOUTHEAST KENTUCKY

CITY           SKY/WX    TMP DP  RH WIND       PRES   REMARKS
JACKSON        LGT RAIN  60  57  89 SW9G18    29.87R
LONDON         RAIN      58  54  86 SW8       29.90F FOG
SOMERSET       NOT AVBL
MIDDLESBORO    LGT RAIN  65  60  84 SW7G18    29.91F
MONTICELLO     RAIN      56  54  93 W16       29.92F
$$





USA.gov is the U.S. government's official web portal to all federal, state and local government web resources and services.